Theta_e
349 351 349 349 348 349 349 346 345 344 344 347 345 344 344 344 345 346 347 349 349 347 348 346 350 346 348 348 346 349 346 345 345 345 346 345 344 343 343 344 344 343 341 340 339 339 340 339 340 338 339 343 341 341 342 339 338 337 337 329 338 338
348 346 347 348 347 347 347 347 350 348 348 347 344 344 346 349 348 346 343 347 343 347 347 346 343 344 345 345 346 348 348 347 345 345 345 345 344 343 344 343 343 342 341 340 340 335 337 340 339 337 338 340 341 341 341 341 339 336 335 336 339 339
345 351 345 345 345 350 348 349 349 348 347 345 348 349 350 349 347 346 346 346 348 346 346 345 344 340 340 343 339 347 348 348 347 346 346 345 344 344 342 343 342 341 340 340 335 331 333 334 334 339 341 341 340 339 341 341 339 338 334 339 338 339
345 345 347 347 348 346 347 347 348 347 347 345 346 347 348 347 346 348 343 345 345 344 344 347 344 344 346 342 344 346 347 347 347 346 346 345 345 343 343 342 341 341 340 335 332 330 331 334 335 334 335 338 338 340 341 341 338 338 338 336 335 340
344 346 346 347 345 345 347 347 347 346 345 345 344 346 347 346 346 346 344 345 342 342 344 344 344 341 338 339 345 345 345 341 342 341 346 337 341 343 343 342 340 338 335 334 333 335 333 332 336 335 337 338 338 340 341 341 339 336 338 338 338 339
344 344 344 344 343 345 344 342 342 346 344 344 344 346 346 346 344 344 345 343 346 339 339 342 344 343 339 348 342 340 343 344 339 339 340 336 340 337 337 339 339 337 336 337 337 337 334 334 333 333 334 338 339 339 340 339 339 339 339 340 338 340
342 344 343 340 343 342 344 340 343 343 344 344 342 344 345 346 346 345 345 344 344 342 337 340 343 341 343 342 343 344 342 342 344 338 338 339 337 337 336 338 341 339 338 337 336 336 334 333 334 331 332 333 335 337 339 339 339 338 340 340 339 341
340 341 343 341 342 340 341 339 340 341 344 345 341 342 341 341 343 341 342 338 344 343 341 336 341 343 341 341 341 343 344 345 346 340 339 338 336 335 335 335 337 335 336 335 338 335 335 332 333 334 332 333 334 336 338 338 341 341 340 339 338 341
338 338 341 340 340 342 342 342 339 339 343 343 343 342 343 344 341 343 341 342 344 343 340 339 337 339 340 341 342 342 342 343 343 341 340 339 337 336 335 336 336 336 337 336 334 335 334 333 335 335 332 331 333 333 335 338 340 338 339 338 341 339
333 334 337 337 338 339 341 342 343 341 342 340 344 344 344 342 343 345 345 345 345 344 343 338 340 340 340 342 340 342 344 342 342 340 338 340 336 336 335 335 334 334 332 333 333 334 335 334 334 335 331 331 331 332 336 335 336 337 338 338 340 340
332 336 332 330 336 338 339 338 339 342 346 345 346 344 346 343 344 343 342 346 344 344 344 341 341 341 342 338 339 345 343 346 345 342 343 339 338 338 336 337 334 332 332 331 331 331 330 333 334 333 332 330 330 332 332 336 335 336 336 337 338 341
332 337 337 331 332 335 334 334 337 338 345 344 345 344 343 343 346 341 344 344 345 342 343 341 344 342 341 340 337 339 344 344 344 343 343 339 337 337 336 333 332 332 333 331 333 333 334 332 333 331 331 330 330 331 331 333 333 334 335 338 336 340
333 335 334 334 334 335 337 335 334 336 342 345 345 345 342 342 344 344 344 345 345 345 343 343 342 341 341 337 340 341 341 343 344 344 343 341 339 337 336 334 332 333 333 334 334 333 331 333 333 332 332 330 331 329 330 330 333 334 334 334 335 335
335 332 336 334 333 333 335 336 335 335 341 346 344 342 342 345 344 343 345 346 346 345 343 342 339 339 341 341 339 342 342 343 344 344 343 340 338 337 335 335 333 331 331 332 332 334 331 331 329 331 333 333 334 333 332 329 331 332 334 335 335 336
339 337 334 334 332 334 336 334 334 335 337 340 344 342 341 342 342 344 343 342 344 343 343 341 341 342 339 338 338 342 343 343 344 344 342 339 338 336 335 334 333 332 332 332 333 332 332 336 337 335 335 337 335 333 334 332 332 331 332 335 336 335
340 339 339 336 339 338 335 336 335 334 336 338 337 340 340 342 341 341 341 338 341 342 342 341 341 341 343 339 337 340 342 344 344 342 339 340 338 337 336 336 335 333 334 330 331 331 335 335 337 336 338 337 337 335 334 333 332 331 332 334 333 335
341 339 337 336 336 337 335 335 335 335 334 335 334 334 337 339 340 337 336 339 341 341 341 341 341 341 342 342 341 341 342 343 344 342 342 341 338 337 337 334 337 336 335 337 333 334 335 333 336 336 336 336 337 337 335 334 332 333 330 331 332 332
341 339 336 335 335 334 335 331 330 332 335 332 332 332 332 333 336 337 337 335 338 339 340 340 342 342 342 342 342 341 340 342 342 342 342 342 339 339 338 336 335 337 337 334 333 332 332 335 336 335 336 336 337 338 337 336 336 333 331 330 331 331
340 337 335 336 336 336 334 335 330 330 328 328 332 331 331 331 332 334 336 337 338 338 338 338 337 339 341 340 340 340 339 340 341 339 340 340 340 339 338 339 338 338 335 336 335 333 331 334 334 333 332 335 338 336 338 339 337 335 334 331 329 330
339 335 335 335 332 329 329 328 327 329 328 330 330 329 332 330 332 329 333 333 334 334 334 336 338 337 340 338 338 338 339 340 340 338 338 332 336 336 337 338 338 335 333 334 334 337 336 335 335 334 334 334 335 337 336 338 337 334 333 334 332 332
338 335 332 330 328 327 326 326 326 327 326 327 327 327 328 330 330 330 330 328 329 331 332 332 332 331 332 333 335 337 339 339 338 333 332 334 334 335 337 339 340 337 335 331 329 335 337 337 334 330 332 332 332 335 336 334 334 336 335 333 333 333
335 333 331 330 328 327 328 326 324 326 325 323 321 323 323 326 327 327 327 326 327 327 329 330 330 332 332 330 330 331 338 337 337 335 332 333 332 334 335 337 334 333 331 329 327 330 335 334 329 325 323 324 328 334 335 336 335 333 336 335 334 335
335 330 329 331 327 327 328 328 328 324 324 324 328 327 324 324 325 323 327 327 328 329 328 328 329 330 329 330 330 329 331 333 337 337 335 334 335 331 330 330 330 329 329 329 330 333 332 334 329 327 326 322 323 322 327 330 331 330 333 335 334 333
334 331 330 330 327 330 331 330 329 327 327 326 324 326 326 326 325 325 326 329 330 331 330 329 328 327 328 329 330 329 330 331 333 332 334 334 334 333 332 330 332 333 333 324 327 328 332 333 332 327 319 321 322 322 318 322 327 332 334 331 330 331
333 331 329 329 329 331 331 330 329 329 327 323 322 321 322 322 324 324 326 328 328 329 327 326 327 327 325 326 327 328 329 331 330 331 331 329 328 328 331 334 334 333 332 330 328 328 329 332 332 332 327 323 320 319 320 323 323 328 332 328 331 328
333 331 329 329 331 330 327 326 323 320 316 317 317 319 320 319 321 322 321 327 327 327 328 328 327 326 325 325 326 327 328 328 329 329 328 329 327 326 326 327 330 330 330 333 332 327 325 328 329 330 330 330 328 322 320 323 321 317 332 333 330 329
332 331 330 329 332 326 324 323 322 319 318 318 318 321 324 325 323 322 326 326 326 329 328 327 327 326 326 325 326 326 327 327 326 327 327 327 325 326 325 325 328 328 328 329 330 327 323 323 329 328 328 329 329 327 325 321 318 321 317 326 332 330
332 329 330 330 330 326 325 323 322 321 320 319 321 322 323 324 325 325 324 326 327 327 328 327 327 325 326 326 326 326 326 326 324 324 324 324 325 325 326 326 327 328 327 328 328 326 325 326 324 325 329 328 327 326 327 327 325 319 318 314 322 330
332 330 329 330 328 326 326 324 322 322 319 322 323 322 323 322 322 324 324 325 325 325 326 327 327 325 324 322 322 322 322 320 320 320 319 320 322 323 325 326 326 326 326 326 327 327 324 323 323 323 325 326 326 326 326 326 325 324 317 315 316 321
332 330 329 329 328 326 327 325 323 322 321 321 321 320 321 321 322 323 324 324 324 323 322 324 324 321 320 319 319 319 318 318 319 317 316 317 318 321 322 323 325 326 326 324 324 324 323 323 323 323 322 321 320 320 322 322 321 320 320 322 317 317
331 330 329 329 328 327 327 326 323 322 322 323 322 321 321 321 321 323 321 322 322 321 323 322 321 321 321 320 321 320 320 319 320 320 318 318 319 318 320 320 321 322 322 321 321 322 322 322 321 320 319 318 317 318 316 315 316 317 316 314 313 314
331 329 330 329 328 327 326 326 325 325 322 323 323 321 322 321 321 321 321 321 321 321 321 321 321 320 322 321 321 319 320 320 319 320 319 319 319 318 319 320 320 320 320 321 321 319 319 318 319 318 318 316 317 317 318 316 316 315 315 314 313 310
329 329 330 329 327 328 327 326 325 324 324 324 323 322 323 322 322 321 321 321 321 320 319 319 319 319 320 322 321 321 320 319 319 320 320 317 318 319 319 319 319 319 320 319 318 318 316 317 316 314 314 316 315 316 316 316 316 315 314 315 313 309
329 330 331 329 326 326 327 327 327 325 324 323 323 323 323 323 323 322 321 321 320 321 319 321 320 320 320 321 321 322 321 320 320 320 320 321 321 320 320 317 319 320 319 320 320 319 318 318 317 317 315 314 312 313 314 316 315 315 315 313 311 311
329 329 330 328 325 326 326 328 326 326 324 325 322 322 322 323 323 323 322 322 321 321 320 322 320 321 320 322 322 322 321 320 319 320 319 320 320 320 320 318 319 320 320 320 319 317 316 317 316 315 316 313 314 314 312 313 313 314 313 313 312 312
330 329 330 328 325 326 326 328 327 327 326 325 324 324 322 323 323 324 324 322 321 322 322 322 323 322 321 323 322 321 321 320 320 319 320 319 319 318 319 318 318 319 318 318 320 319 318 318 317 317 315 315 314 313 314 312 313 313 312 314 313 312
329 330 329 329 327 326 326 327 328 327 327 326 325 325 322 324 326 325 326 324 321 322 324 324 323 323 321 323 323 322 321 320 320 320 319 319 319 319 319 319 319 319 319 319 318 316 317 317 317 316 315 315 313 314 313 313 315 315 314 314 314 313
Wind_Speed
11 12 9 6 4 6 9 9 9 9 8 9 9 9 9 10 9 8 6 7 7 6 5 6 5 6 8 6 6 2 8 9 9 9 10 10 9 10 10 11 10 9 9 9 7 6 4 5 4 4 5 8 8 5 5 1 2 1 2 3 6 8
8 10 8 5 3 5 8 9 9 9 7 7 8 9 8 8 9 8 6 4 5 3 5 4 7 7 7 7 6 7 7 7 8 9 10 10 10 11 11 10 10 10 9 9 10 5 6 5 5 5 6 8 7 7 4 2 3 4 0 4 9 10
10 8 12 10 7 7 9 7 8 8 7 5 8 9 8 7 7 7 7 6 3 3 5 5 6 7 8 10 10 9 8 7 8 10 11 10 10 11 10 10 10 10 10 10 8 7 7 7 6 9 7 6 6 4 2 3 3 2 3 9 7 12
12 13 10 7 8 7 7 7 7 8 7 6 8 7 7 7 7 7 8 6 5 4 4 3 4 6 10 7 7 8 8 7 7 8 9 9 10 10 11 11 11 11 8 7 6 8 7 8 7 6 6 6 5 2 4 3 4 3 4 10 9 12
12 8 7 7 8 8 7 6 7 8 7 8 8 7 6 8 6 5 5 6 7 5 5 5 6 8 7 7 7 5 3 5 6 6 9 5 7 7 9 8 8 9 8 7 7 6 4 2 3 5 6 3 2 3 3 4 4 1 2 10 10 13
13 9 7 4 3 3 8 8 5 4 6 4 6 7 6 5 3 5 7 7 6 8 8 5 6 5 2 6 3 6 6 3 5 5 5 6 5 7 7 6 7 8 7 6 6 4 3 3 1 3 3 4 3 4 4 4 3 2 2 9 10 14
7 11 14 12 7 5 1 2 2 4 6 4 2 2 2 4 5 6 6 5 6 8 8 8 6 8 8 5 3 5 5 6 4 6 7 4 3 5 5 5 5 6 6 6 6 6 5 5 4 5 5 4 4 4 3 4 3 4 3 7 9 15
5 5 4 8 13 13 9 10 4 3 5 5 7 5 8 7 6 7 9 11 12 6 6 5 6 5 4 5 7 3 2 5 7 4 5 4 6 4 3 3 5 5 5 6 6 6 5 6 4 5 4 5 3 3 3 2 3 2 2 6 8 12
6 4 4 3 3 3 7 10 12 8 6 6 7 7 8 6 7 8 9 10 6 3 6 3 4 4 3 3 2 1 1 2 4 1 1 2 2 3 3 3 3 3 3 4 5 5 6 5 5 4 4 4 4 5 4 4 2 4 4 4 7 10
4 5 5 3 1 1 2 2 6 10 9 12 7 8 7 4 4 1 5 6 4 4 3 5 3 1 3 2 2 1 3 3 3 2 1 2 3 2 2 3 4 6 3 4 5 6 5 5 6 5 6 5 5 5 3 4 5 4 5 3 4 8
5 3 3 3 2 2 1 2 4 3 3 4 6 6 6 6 5 8 5 5 6 5 5 1 4 0 2 1 1 3 0 1 2 2 2 3 4 0 1 1 4 3 6 4 5 5 6 6 5 5 5 6 5 4 5 4 5 5 5 6 6 7
8 3 3 2 3 1 2 1 1 3 1 0 3 2 3 4 1 3 6 4 2 2 1 5 2 2 2 3 1 2 1 2 3 3 4 2 2 1 1 6 2 2 3 5 3 4 5 4 4 6 6 6 6 5 5 5 6 5 5 4 5 7
7 4 1 4 5 2 1 2 2 1 3 1 2 2 2 2 5 2 1 2 3 2 3 4 3 3 4 2 4 1 3 3 4 4 4 4 3 2 3 1 1 2 3 3 4 3 4 4 5 4 4 4 5 7 7 5 5 6 7 5 6 5
6 5 2 3 1 1 2 2 1 0 3 1 2 2 1 3 4 5 4 3 2 2 1 5 2 2 3 2 2 2 4 4 4 6 5 4 4 3 3 3 3 5 4 5 5 4 4 5 4 2 2 4 4 4 5 7 5 6 5 5 5 5
3 6 3 4 1 2 1 2 1 2 4 1 1 1 2 3 2 1 3 2 2 3 1 1 2 4 3 2 4 4 4 4 4 5 6 5 5 4 5 3 4 5 5 3 5 3 2 3 4 4 2 3 5 5 5 6 6 6 6 5 5 5
5 4 4 4 3 2 3 2 3 2 3 2 1 0 4 3 3 3 2 3 1 3 2 1 1 2 4 5 5 4 4 2 3 5 6 6 5 5 5 5 5 5 2 6 5 5 2 1 2 1 1 1 2 4 5 5 6 7 6 6 7 5
7 6 5 5 4 3 3 3 3 3 2 3 3 1 3 3 1 5 2 2 2 2 1 2 2 2 2 3 3 3 3 2 3 5 5 5 5 5 5 6 2 3 5 2 4 3 3 3 1 1 1 2 3 4 4 5 6 6 7 7 7 6
6 6 5 5 4 3 3 3 2 3 4 3 1 2 2 3 3 3 6 4 3 3 2 3 3 4 4 3 3 3 2 3 4 5 5 5 6 6 5 5 5 0 2 3 5 4 4 2 2 1 1 1 2 4 4 4 5 7 7 8 7 7
7 7 6 6 5 4 4 2 4 3 4 2 2 3 1 3 2 2 4 4 2 3 3 3 3 1 2 3 2 2 4 3 4 4 5 4 6 6 6 5 5 2 1 4 5 6 3 4 3 2 2 2 2 3 4 3 4 4 7 8 7 8
7 7 6 6 5 4 4 4 4 3 3 4 3 4 3 3 3 4 3 2 2 1 2 1 1 1 1 2 3 1 3 4 2 4 2 6 5 7 7 6 6 6 3 5 7 2 3 2 2 2 2 3 3 3 3 3 2 3 5 8 6 5
8 7 6 5 5 5 4 4 3 2 4 3 4 3 3 5 5 5 6 4 4 3 2 2 0 3 3 2 3 4 4 4 5 6 5 3 5 7 6 5 2 1 1 1 4 5 2 2 1 1 1 3 4 2 3 3 3 4 3 4 8 6
8 7 6 4 3 3 3 3 4 4 3 4 5 4 4 4 4 4 3 3 3 3 2 2 2 2 1 2 3 3 3 3 4 6 5 6 5 8 7 2 2 1 2 3 1 6 3 3 2 0 1 1 2 3 3 3 3 4 2 2 3 10
8 7 6 4 4 4 2 4 1 4 2 5 6 6 6 6 4 5 4 4 3 3 2 3 2 2 0 0 1 0 2 2 3 2 3 5 4 2 3 6 7 4 4 6 6 2 1 2 1 2 0 2 1 1 0 3 3 4 3 4 3 8
9 8 7 6 4 4 4 4 5 4 5 4 6 6 6 5 5 5 5 4 5 4 4 3 2 2 2 3 2 0 0 1 1 1 3 1 2 4 7 9 6 4 2 4 4 3 2 2 1 3 2 2 0 0 3 0 1 1 3 3 8 10
10 9 8 7 5 6 6 6 6 6 7 7 6 5 5 5 4 5 4 4 4 4 4 4 3 5 5 2 2 2 2 2 2 1 0 1 0 1 0 2 2 1 1 2 2 3 2 1 2 1 1 1 2 1 1 2 3 1 2 1 4 5
10 9 9 9 7 7 6 6 7 6 6 6 6 5 5 5 5 4 5 4 5 4 5 4 4 4 5 3 3 1 1 2 3 3 0 1 1 1 2 2 4 3 3 3 3 3 3 1 2 2 4 1 2 1 1 3 3 2 1 2 4 6
11 10 10 10 9 7 7 7 7 7 6 6 6 5 6 5 5 5 5 5 5 4 5 5 5 4 4 4 4 4 3 4 4 3 3 4 5 5 5 6 5 4 4 4 2 2 5 3 3 3 1 1 2 1 2 2 2 2 4 2 1 2
11 11 10 11 10 8 8 8 8 7 6 6 6 7 7 6 5 5 5 5 5 5 5 5 4 4 4 4 4 4 4 3 2 3 2 3 4 4 4 5 6 5 4 5 4 4 4 4 2 3 3 3 3 3 3 4 3 5 3 4 2 1
12 11 12 13 11 10 8 8 8 7 7 6 7 7 7 6 6 6 6 5 5 5 5 5 5 5 5 5 5 4 4 5 5 4 3 4 5 6 6 6 5 5 5 5 5 5 3 4 3 3 2 3 3 4 3 3 3 5 5 5 5 3
13 11 12 13 12 11 10 9 8 8 8 8 7 7 7 7 6 6 6 6 5 5 5 5 5 6 5 6 5 5 5 5 5 6 6 6 5 5 4 5 5 5 5 5 5 6 6 5 4 4 4 2 0 1 4 4 4 4 3 4 5 4
14 11 12 13 13 12 10 10 9 9 9 9 9 8 8 7 7 6 6 6 5 5 5 5 5 5 5 5 5 5 4 4 4 4 4 4 4 4 4 4 4 5 6 6 5 5 5 6 5 5 5 4 4 4 4 4 3 3 4 5 5 4
17 14 13 13 13 12 10 10 9 10 10 9 9 8 9 9 8 8 7 6 6 5 6 5 5 5 5 5 4 4 4 4 4 4 4 3 4 4 4 4 4 4 5 5 5 5 5 6 7 5 5 5 4 3 4 4 4 3 4 4 4 5
17 16 15 14 14 13 12 11 10 10 10 9 10 9 9 9 9 8 7 7 6 6 6 6 5 5 5 5 4 4 4 4 4 4 4 5 5 5 5 5 5 6 6 6 6 6 6 6 6 6 5 4 4 4 4 3 3 4 3 3 4 5
18 17 15 15 15 14 13 11 10 10 10 10 10 9 9 9 9 8 8 8 7 6 6 6 6 6 6 6 5 5 4 5 5 5 4 4 4 3 3 5 5 5 5 5 5 5 6 5 5 5 5 4 4 4 3 2 3 3 3 3 4 5
17 16 16 16 15 15 12 12 11 10 10 9 10 10 9 9 9 8 8 9 8 8 7 7 7 6 7 6 6 6 6 6 5 5 4 4 4 4 3 4 5 5 4 4 5 5 5 5 5 5 5 4 3 3 4 4 4 3 5 5 4 4
16 16 15 15 14 14 13 11 12 12 11 10 10 9 9 9 9 8 8 9 8 8 8 8 8 8 8 7 7 6 6 6 6 5 5 4 3 4 3 3 4 4 4 3 3 3 3 4 4 4 5 4 3 4 3 5 4 4 4 5 4 4
14 13 14 14 13 14 13 12 13 12 11 11 10 11 9 10 10 9 8 9 8 8 9 9 9 10 9 8 7 7 7 7 6 6 5 5 4 4 3 3 4 3 4 3 3 3 3 3 2 2 3 3 3 2 4 4 4 4 5 4 5 5
Wind_Direction
149 142 143 142 162 161 149 141 129 111 111 134 124 125 122 141 169 137 144 159 147 154 171 150 165 168 159 178 171 156 142 141 155 160 156 158 163 161 169 172 167 152 145 141 144 137 135 145 150 177 195 194 205 228 246 246 29 64 183 134 108 104
141 148 135 147 153 172 165 170 169 161 161 151 144 148 150 162 167 159 160 179 173 199 187 178 181 177 169 183 170 153 150 152 148 160 167 168 170 171 172 173 162 154 149 153 156 183 169 167 173 183 193 208 214 235 209 206 241 147 286 119 96 112
138 142 153 156 166 170 164 175 173 178 176 187 183 182 175 170 191 173 180 180 196 206 220 178 197 182 174 182 178 153 158 166 164 156 169 173 169 170 168 165 162 160 163 165 184 221 200 186 187 188 202 209 231 213 184 221 226 144 206 91 102 121
144 156 152 145 148 163 163 170 172 180 182 190 205 201 184 182 201 190 169 202 188 236 234 209 210 194 140 174 154 161 165 167 167 180 158 169 171 171 167 168 166 166 180 195 211 229 215 179 176 184 201 213 205 174 190 203 229 186 193 113 116 125
139 152 143 141 150 159 162 165 181 177 183 190 195 197 190 190 205 159 200 194 198 203 222 215 185 204 209 166 160 167 182 198 188 192 178 192 185 167 183 182 174 182 202 197 213 221 263 232 200 186 195 181 187 194 203 196 238 197 152 104 123 128
143 161 132 154 163 179 160 168 170 192 189 194 180 198 191 201 172 182 214 215 180 202 208 190 234 219 189 56 160 178 171 198 205 222 179 227 189 165 203 187 188 197 203 203 208 220 212 267 216 268 222 185 204 193 205 188 174 212 158 111 130 122
160 158 160 172 157 205 209 213 181 168 195 166 253 261 254 225 191 202 215 238 210 202 171 198 195 228 133 159 223 223 182 193 240 209 172 217 211 187 201 174 202 197 202 210 202 195 203 206 234 202 239 208 199 230 189 193 164 189 184 119 130 131
152 141 183 183 161 166 191 163 214 255 229 170 169 192 214 213 175 188 210 221 214 143 243 193 180 200 175 159 185 183 224 178 205 196 162 144 219 187 186 197 187 203 217 218 206 204 206 214 182 262 228 226 189 233 243 216 173 182 181 137 136 140
123 159 150 260 137 171 161 159 157 214 193 226 175 196 208 153 184 197 205 221 188 189 203 219 168 167 210 145 144 237 115 92 256 164 296 200 230 197 176 193 185 215 207 217 211 203 202 214 193 205 246 236 233 219 200 199 177 204 173 197 141 149
164 166 133 203 105 141 140 211 162 182 166 184 199 195 196 181 163 286 266 209 188 193 219 173 179 160 105 152 150 59 67 36 350 258 138 257 230 219 200 172 205 192 185 226 208 192 206 214 204 212 204 222 224 241 211 204 201 200 204 176 153 149
127 57 122 178 106 95 338 214 181 162 194 183 163 217 183 181 194 163 209 205 172 202 207 59 70 43 147 176 158 113 283 12 286 256 233 197 239 247 254 218 234 221 165 238 203 209 213 196 215 221 225 215 232 217 237 206 220 209 201 187 160 153
98 83 325 104 144 154 246 230 201 173 158 162 102 231 216 191 170 141 172 150 153 210 225 64 308 161 242 234 168 163 153 227 241 238 240 244 238 221 241 250 187 272 309 159 237 202 209 226 207 223 218 230 220 230 235 214 223 210 233 196 181 166
109 115 112 13 51 41 22 232 177 235 124 145 183 201 231 31 88 33 342 138 168 201 109 140 158 257 270 346 30 166 244 233 236 230 217 215 248 200 251 65 205 233 214 171 205 214 223 197 216 245 269 246 242 213 214 239 219 217 216 218 205 202
112 136 87 69 31 348 65 12 337 182 104 165 190 220 103 101 143 203 166 159 152 146 163 132 158 284 286 353 234 268 241 217 216 223 212 206 205 208 229 214 184 195 190 194 201 191 200 206 203 212 282 283 243 272 277 236 233 220 222 237 231 219
116 106 142 104 128 92 90 342 348 61 102 199 42 245 147 166 202 183 145 93 139 95 134 139 115 107 332 221 231 229 235 225 202 203 208 195 214 205 217 209 207 186 195 189 192 183 182 43 36 41 4 346 333 282 250 273 275 254 210 224 239 245
132 120 103 98 95 68 92 54 45 67 105 146 194 86 103 268 201 177 97 82 145 108 110 58 109 146 176 240 236 227 232 239 187 191 202 196 210 211 210 217 210 155 191 208 183 179 169 117 83 77 29 320 299 305 285 262 258 262 248 228 227 223
140 135 125 116 122 100 104 124 119 82 104 163 150 137 24 55 40 81 29 107 3 96 314 128 208 186 210 236 242 225 216 227 213 198 198 202 213 212 213 205 228 244 159 323 350 149 126 162 190 147 332 325 321 308 287 291 265 243 253 235 236 227
142 139 132 134 127 153 123 104 132 100 36 72 117 148 156 131 58 68 134 139 211 117 187 139 167 175 225 228 234 233 228 220 218 210 204 211 209 213 216 205 215 187 306 225 162 215 151 164 190 221 271 300 305 305 301 295 302 305 253 241 224 243
146 139 143 142 140 108 110 97 76 120 127 140 99 60 47 107 81 82 32 79 92 106 106 158 154 228 226 216 208 220 248 203 235 227 232 228 215 215 212 221 221 187 226 229 233 163 175 165 181 220 251 249 262 285 299 320 309 309 293 256 246 228
148 147 146 151 158 157 156 156 135 132 122 65 54 72 72 102 157 109 107 85 86 104 110 119 115 170 227 218 204 200 221 230 210 273 260 242 249 223 213 224 221 213 213 302 273 202 179 163 187 262 287 301 303 303 308 320 313 312 316 289 253 259
149 155 160 168 177 169 154 141 137 114 111 141 94 109 69 51 56 60 33 52 51 63 70 24 50 182 190 234 263 187 198 220 210 172 234 241 244 290 259 227 211 8 196 190 270 293 200 140 145 242 303 276 265 250 249 269 288 294 286 318 306 267
153 161 165 177 154 147 152 137 162 136 129 130 149 147 110 100 82 79 75 60 49 48 53 71 58 20 326 240 209 219 244 209 223 152 177 251 258 233 264 281 17 227 247 214 253 246 210 155 157 218 310 309 255 237 231 228 250 271 289 286 331 297
156 160 156 156 155 153 125 102 156 113 123 96 59 51 80 86 85 94 78 77 67 64 42 70 54 45 288 261 308 247 195 247 272 290 191 196 205 156 194 253 194 224 226 208 220 214 178 242 117 116 249 296 304 306 299 272 251 257 262 278 256 243
158 160 150 152 159 127 111 103 82 101 76 84 97 90 96 89 91 89 81 61 67 46 41 47 56 191 138 49 359 81 223 285 230 253 269 279 220 197 172 193 228 201 202 252 218 187 180 169 158 140 162 203 72 58 303 113 269 284 211 253 305 292
159 158 149 150 153 132 128 125 115 104 103 101 115 131 132 116 103 98 103 93 81 74 74 57 47 19 53 63 58 10 51 56 20 51 288 156 270 359 66 10 27 349 320 338 2 72 64 172 155 193 149 164 160 208 351 358 341 242 7 296 229 271
160 156 151 153 152 151 157 145 147 146 143 148 140 149 138 131 140 121 90 99 90 76 62 63 62 59 65 78 85 51 16 95 102 59 96 177 189 75 355 132 53 29 34 22 19 111 170 73 114 181 213 257 18 61 22 7 335 309 351 197 306 313
160 158 152 155 155 164 164 159 163 160 155 152 147 126 109 114 104 104 108 90 94 91 90 79 67 74 63 53 57 56 36 25 42 54 29 29 31 359 18 19 19 33 35 48 40 84 135 201 154 104 162 266 67 87 162 156 222 307 313 295 316 324
163 161 157 157 160 171 171 163 172 169 159 155 146 125 131 118 109 110 115 118 113 116 111 100 96 88 96 82 68 69 50 39 40 72 78 62 42 38 26 46 30 3 23 23 30 60 92 117 84 102 119 139 161 172 204 222 181 245 236 275 260 281
165 163 159 158 164 174 179 167 176 173 167 149 135 143 139 134 129 124 127 129 116 105 99 95 93 86 76 78 80 69 52 49 34 46 65 72 54 41 35 33 36 38 34 33 28 16 38 52 90 88 140 156 151 182 183 214 224 238 249 245 266 224
167 166 163 163 167 175 182 172 181 176 171 149 152 151 148 138 134 144 134 131 132 123 114 116 109 97 94 94 87 83 77 62 50 43 45 59 64 67 52 52 46 45 41 46 41 36 26 25 33 34 19 3 295 215 183 152 236 236 271 267 282 282
169 167 166 165 169 175 185 175 186 176 173 158 159 157 147 152 147 151 147 148 145 130 125 115 117 113 105 100 92 84 81 81 72 55 64 68 58 74 85 80 75 64 48 39 45 41 47 33 26 38 6 25 16 22 12 342 0 339 333 312 309 302
168 170 169 168 170 176 183 181 186 177 174 164 162 165 157 161 159 159 154 158 144 141 135 132 130 129 125 113 107 105 103 100 87 88 83 80 92 84 75 66 57 58 63 58 45 46 45 36 20 32 35 18 28 14 13 2 21 335 328 337 326 305
169 169 169 171 173 177 182 184 184 179 177 168 170 174 165 167 168 165 166 163 158 155 149 151 148 140 136 140 125 127 124 102 97 78 73 81 72 61 65 71 69 66 59 55 52 46 50 44 39 22 13 14 1 20 35 19 338 345 336 329 307 304
170 170 168 172 173 177 184 184 184 181 180 173 179 177 180 174 175 175 168 164 169 161 160 161 157 154 151 159 147 127 116 103 99 102 93 78 67 66 77 89 79 71 73 67 61 61 55 52 48 40 22 19 12 8 22 13 356 315 318 315 326 326
172 171 170 173 174 178 181 185 185 186 184 183 180 183 188 179 180 184 173 168 174 165 166 166 165 155 162 162 147 148 134 134 128 118 111 105 104 93 63 68 77 74 68 68 64 56 54 42 43 36 33 18 343 28 7 5 347 342 341 343 338 337
175 174 172 174 176 178 180 184 186 189 189 191 185 184 193 181 182 191 177 173 177 170 169 166 162 158 169 165 159 154 154 144 144 140 134 130 130 107 98 97 100 102 96 97 101 96 94 78 54 40 36 8 357 26 12 9 334 5 346 344 320 309
181 177 176 177 178 179 180 185 190 191 192 195 194 192 193 187 180 186 182 178 181 179 169 170 162 162 172 168 168 167 165 158 156 152 147 144 130 121 136 129 108 117 113 111 92 79 66 76 82 50 44 19 6 355 33 354 348 357 349 336 330 321